Weather History for KMMU - May, 2012

Change the Weather History Date:

Friday, May 4, 2012

  Actual Average (KEWR) Record (KEWR)
Temperature  
Mean Temperature 66 °F 59 °F  
Max Temperature 78 °F 69 °F 94 °F (2001)
Min Temperature 53 °F 50 °F 37 °F (1941)
Degree Days  
Heating Degree Days 0 7  
Month to date heating degree days 29  
Since 1 July heating degree days 4749  
Cooling Degree Days 0 1  
Month to date cooling degree days 4  
Year to date cooling degree days 16  
Growing Degree Days 16 (Base 50)    
Moisture  
Dew Point 57 °F    
Average Humidity 93    
Maximum Humidity 100    
Minimum Humidity 61    
Precipitation  
Precipitation 0.01 in 0.12 in 0.92 in (1975)
Month to date precipitation 0.48  
Year to date precipitation 15.28  
Snow  
Snow 0.00 in 0.00 in 0.00 in (2002)
Month to date snowfall 0.0  
Since 1 July snowfall 28.5  
Snow Depth -    
Sea Level Pressure  
Sea Level Pressure 29.99 in    
Wind  
Wind Speed 2 mph (SW)    
Max Wind Speed 16 mph    
Max Gust Speed -    
Visibility 4 miles    
Events Fog , Thunderstorm    
T = Trace of Precipitation, MM = Missing Value Source: NWS Daily Summary

Daily Weather History Graph

Daily Weather History Graph

Search for Another Location

Airport or City:

Trip Planner

Search our weather history database for the weather conditions in past years. The results will help you decide how hot, cold, wet, or windy it might be!

Date:

Astronomy

May. 04, 2012 Rise Set
Actual Time 5:51 AM EDT 7:57 PM EDT
Civil Twilight 5:21 AM EDT 8:27 PM EDT
Nautical Twilight 4:44 AM EDT 9:04 PM EDT
Astronomical Twilight 4:04 AM EDT 9:45 PM EDT
Moon 6:32 PM EDT (5/4) 4:31 AM EDT (5/4)
Length of Visible Light 15h 06m
Length of Day
14h 05m
Waxing Gibbous, 97% of the Moon is Illuminated
May 4
Waxing Gibbous
May 5
Full
May 12
Last Quarter
May 20
New
May 28
First Quarter

Hourly Weather History & Observations

Time (EDT) Temp. Dew Point Humidity Pressure Visibility Wind Dir Wind Speed Gust Speed Precip Events Conditions
12:15 AM 53.6 °F 53.6 °F 100% 30.11 in 2.0 mi Calm Calm - N/A   Overcast
12:35 AM 53.6 °F 53.6 °F 100% 30.10 in 2.5 mi Calm Calm - N/A   Overcast
12:55 AM 53.6 °F 53.6 °F 100% 30.10 in 4.0 mi Calm Calm - N/A   Overcast
1:15 AM 53.6 °F 53.6 °F 100% 30.08 in 3.0 mi Calm Calm - N/A   Overcast
1:35 AM 53.6 °F 53.6 °F 100% 30.07 in 2.0 mi Calm Calm - N/A   Overcast
1:55 AM 53.6 °F 53.6 °F 100% 30.06 in 2.5 mi Calm Calm - N/A   Overcast
2:15 AM 53.6 °F 53.6 °F 100% 30.07 in 2.0 mi Calm Calm - N/A   Overcast
2:35 AM 53.6 °F 53.6 °F 100% 30.06 in 2.0 mi Calm Calm - N/A   Overcast
2:55 AM 53.6 °F 53.6 °F 100% 30.05 in 1.5 mi Calm Calm - N/A   Overcast
3:15 AM 53.6 °F 53.6 °F 100% 30.04 in 1.2 mi Calm Calm - N/A   Overcast
3:35 AM 53.6 °F 53.6 °F 100% 30.03 in 1.2 mi Calm Calm - N/A   Overcast
3:55 AM 53.6 °F 53.6 °F 100% 30.02 in 1.2 mi Calm Calm - N/A   Overcast
4:15 AM 53.6 °F 53.6 °F 100% 30.03 in 1.0 mi Calm Calm - N/A   Overcast
4:35 AM 53.6 °F 53.6 °F 100% 30.02 in 1.0 mi Calm Calm - N/A   Overcast
4:55 AM 53.6 °F 53.6 °F 100% 30.03 in 1.0 mi NW 3.5 mph - N/A   Overcast
5:15 AM 53.6 °F 53.6 °F 100% 30.06 in 1.5 mi Calm Calm - N/A   Overcast
5:35 AM 53.6 °F 53.6 °F 100% 30.05 in 1.5 mi Calm Calm - N/A Thunderstorm Drizzle
5:55 AM 53.6 °F 53.6 °F 100% 30.06 in 1.5 mi Calm Calm - N/A Thunderstorm Unknown
6:15 AM 53.6 °F 53.6 °F 100% 30.05 in 1.5 mi SSW 5.8 mph - 0.01 in Thunderstorm Unknown
6:35 AM 53.6 °F 53.6 °F 100% 30.03 in 2.5 mi South 3.5 mph - 0.01 in Thunderstorm Overcast
6:45 AM 53.6 °F 53.6 °F 100% 30.03 in 1.5 mi SSE 16.1 mph - N/A   Mostly Cloudy
7:45 AM 55.4 °F 53.6 °F 94% 30.02 in 4.0 mi SW 6.9 mph - N/A   Overcast
8:45 AM 55.4 °F 55.4 °F 100% 30.02 in 1.5 mi SW 4.6 mph - N/A   Overcast
9:45 AM 57.2 °F 55.4 °F 94% 30.01 in 1.5 mi WSW 6.9 mph - N/A   Overcast
10:45 AM 59.0 °F 57.2 °F 94% 29.98 in 3.0 mi SW 5.8 mph - N/A   Overcast
11:45 AM 60.8 °F 57.2 °F 88% 29.97 in 3.0 mi West 5.8 mph - N/A   Overcast
12:45 PM 64.4 °F 59.0 °F 83% 29.95 in 4.0 mi West 5.8 mph - N/A   Haze
1:45 PM 69.8 °F 60.8 °F 73% 29.94 in 6.0 mi SW 5.8 mph - N/A   Haze
2:45 PM 73.4 °F 62.6 °F 69% 29.92 in 10.0 mi South 8.1 mph - N/A   Scattered Clouds
3:45 PM 73.4 °F 62.6 °F 69% 29.89 in 10.0 mi WSW 9.2 mph - N/A   Scattered Clouds
4:45 PM 75.2 °F 64.4 °F 69% 29.87 in 10.0 mi SW 8.1 mph - N/A   Mostly Cloudy
5:45 PM 78.8 °F 64.4 °F 61% 29.85 in 10.0 mi SSE 6.9 mph - N/A   Mostly Cloudy
6:45 PM 77.0 °F 64.4 °F 65% 29.85 in 10.0 mi SSW 4.6 mph - N/A   Scattered Clouds
7:45 PM 71.6 °F 66.2 °F 83% 29.86 in 10.0 mi SSE 3.5 mph - N/A   Mostly Cloudy
8:45 PM 66.2 °F 64.4 °F 94% 29.88 in 10.0 mi Calm Calm - N/A   Mostly Cloudy
9:45 PM 66.2 °F 60.8 °F 83% 29.90 in 10.0 mi Calm Calm - N/A   Mostly Cloudy
10:55 PM 60.8 °F 60.8 °F 100% 29.90 in 5.0 mi Calm Calm - N/A   Clear
11:15 PM 60.8 °F 60.8 °F 100% 29.90 in 4.0 mi Calm Calm - N/A   Clear
11:35 PM 60.8 °F 60.8 °F 100% 29.91 in 3.0 mi Calm Calm - N/A   Mostly Cloudy
11:55 PM 59.0 °F 59.0 °F 100% 29.90 in 0.5 mi Calm Calm - N/A Fog Fog